Weather History for Selinsgrove, PA

Change the Weather History Date:

Thursday, December 20, 2012

  Actual Average (KIPT) Record (KIPT)
Temperature  
Mean Temperature 36 °F 30 °F  
Max Temperature 45 °F 37 °F 62 °F (1957)
Min Temperature 28 °F 23 °F -6 °F (1951)
Degree Days  
Heating Degree Days 30 35  
Month to date heating degree days 646  
Since 1 July heating degree days 1891  
Cooling Degree Days 0 0  
Month to date cooling degree days 0  
Year to date cooling degree days 702  
Moisture  
Dew Point 30 °F    
Average Humidity 86    
Maximum Humidity 100    
Minimum Humidity 60    
Precipitation  
Precipitation 0.47 in 0.08 in 2.40 in (1957)
Month to date precipitation 2.04  
Year to date precipitation 40.39  
Snow  
Snow 0.00 in - - ()
Month to date snowfall  
Since 1 July snowfall  
Snow Depth -    
Sea Level Pressure  
Sea Level Pressure 30.03 in    
Wind  
Wind Speed 3 mph (SE)    
Max Wind Speed 21 mph    
Max Gust Speed 33 mph    
Visibility 6 miles    
Events Rain    
T = Trace of Precipitation, MM = Missing Value Source: NWS Daily Summary

Daily Weather History Graph

Daily Weather History Graph

Search for Another Location

Airport:

Trip Planner

Search our weather history database for the weather conditions in past years. The results will help you decide how hot, cold, wet, or windy it might be!

Date:

Astronomy

Dec. 20, 2012 Rise Set
Actual Time 7:28 AM EST 4:42 PM EST
Civil Twilight 6:57 AM EST 5:13 PM EST
Nautical Twilight 6:22 AM EST 5:48 PM EST
Astronomical Twilight 5:49 AM EST 6:21 PM EST
Moon 12:01 PM EST (12/20) 12:10 AM EST (12/20)
Length of Visible Light 10h 16m
Length of Day
9h 14m
First Quarter, 55% of the Moon is Illuminated
Dec 20
First Quarter
Dec 28
Full
Jan 4
Last Quarter
Jan 11
New
Jan 18
First Quarter

Hourly Weather History & Observations

Time (EST) Temp. Windchill Dew Point Humidity Pressure Visibility Wind Dir Wind Speed Gust Speed Precip Events Conditions
12:53 AM 28.0 °F - 26.1 °F 92% 30.18 in 5.0 mi Calm Calm - N/A   Clear
1:53 AM 28.9 °F - 27.0 °F 92% 30.19 in 5.0 mi Calm Calm - N/A   Clear
2:53 AM 30.0 °F - 28.0 °F 92% 30.21 in 5.0 mi Calm Calm - N/A   Overcast
3:53 AM 28.9 °F 25.2 °F 28.0 °F 96% 30.21 in 5.0 mi WNW 3.5 mph - N/A   Clear
4:53 AM 30.0 °F - 28.9 °F 96% 30.21 in 4.0 mi Calm Calm - N/A   Clear
5:53 AM 30.0 °F - 28.9 °F 96% 30.20 in 4.0 mi Calm Calm - N/A   Clear
6:53 AM 28.0 °F - 27.0 °F 96% 30.20 in 4.0 mi Calm Calm - N/A   Clear
7:06 AM 28.4 °F - 26.6 °F 93% 30.19 in 4.0 mi Calm Calm - N/A   Scattered Clouds
7:15 AM 28.4 °F - 28.4 °F 100% 30.19 in 4.0 mi Calm Calm - N/A   Mostly Cloudy
7:40 AM 28.4 °F - 28.4 °F 100% 30.20 in 3.0 mi Calm Calm - N/A   Scattered Clouds
7:51 AM 28.4 °F - 28.4 °F 100% 30.20 in 2.5 mi Calm Calm - N/A   Mostly Cloudy
7:53 AM 28.9 °F - 28.0 °F 96% 30.21 in 2.5 mi Calm Calm - N/A   Mostly Cloudy
8:04 AM 30.2 °F - 28.4 °F 93% 30.19 in 3.0 mi Calm Calm - N/A   Overcast
8:34 AM 30.2 °F - 28.4 °F 93% 30.18 in 2.5 mi Calm Calm - N/A   Overcast
8:53 AM 30.9 °F - 30.0 °F 96% 30.19 in 3.0 mi Calm Calm - N/A   Scattered Clouds
9:53 AM 33.1 °F 28.7 °F 30.0 °F 89% 30.16 in 4.0 mi NE 4.6 mph - N/A   Clear
10:53 AM 35.1 °F - 30.9 °F 85% 30.12 in 6.0 mi Calm Calm - N/A   Clear
11:53 AM 37.0 °F - 30.9 °F 79% 30.07 in 10.0 mi Calm Calm - N/A   Clear
12:53 PM 39.9 °F - 30.0 °F 68% 30.06 in 10.0 mi Calm Calm - N/A   Clear
1:53 PM 39.9 °F 34.5 °F 27.0 °F 60% 30.01 in 10.0 mi ESE 8.1 mph - N/A   Clear
2:53 PM 39.9 °F 34.5 °F 27.0 °F 60% 30.01 in 10.0 mi SSE 8.1 mph - N/A   Clear
3:53 PM 39.9 °F 33.4 °F 28.0 °F 63% 29.96 in 10.0 mi SSE 10.4 mph 20.7 mph N/A   Clear
4:53 PM 39.9 °F 32.5 °F 28.9 °F 65% 29.94 in 10.0 mi SSE 12.7 mph - 0.00 in Rain Light Rain
5:53 PM 37.9 °F 32.7 °F 30.9 °F 76% 29.92 in 8.0 mi South 6.9 mph 16.1 mph 0.03 in Rain Light Rain
6:10 PM 37.4 °F 30.3 °F 32.0 °F 81% 29.91 in 9.0 mi SE 10.4 mph - 0.00 in Rain Light Rain
6:20 PM 37.4 °F 28.5 °F 30.2 °F 75% 29.89 in 6.0 mi SSE 15.0 mph 27.6 mph 0.01 in Rain Light Rain
6:53 PM 36.0 °F 29.6 °F 32.0 °F 86% 29.87 in 5.0 mi ESE 8.1 mph - 0.04 in Rain Rain
7:17 PM 37.4 °F 31.4 °F 33.8 °F 87% 29.85 in 5.0 mi SE 8.1 mph - 0.03 in Rain Rain
7:53 PM 37.9 °F 29.6 °F 34.0 °F 86% 29.84 in 6.0 mi SE 13.8 mph 18.4 mph 0.08 in Rain Rain
8:53 PM 39.0 °F 32.8 °F 35.1 °F 86% 29.78 in 5.0 mi SE 9.2 mph - 0.10 in Rain Rain
9:53 PM 41.0 °F 35.8 °F 36.0 °F 82% 29.71 in 7.0 mi SSE 8.1 mph 17.3 mph 0.10 in Rain Light Rain
10:53 PM 43.0 °F 34.2 °F 39.9 °F 89% 29.58 in 8.0 mi SE 20.7 mph 33.4 mph 0.09 in Rain Light Rain
11:53 PM 45.0 °F 38.2 °F 39.9 °F 82% 29.49 in 10.0 mi SE 15.0 mph 33.4 mph 0.03 in Rain Light Rain